W4SNA-2 Weather Reports


time (UTC)temp
C
wind
direction
speed
KPH
gust
KPH
rain 1hr
cm
rain 24hr
cm
rain mn
cm
humidity
%
barometer
mb
20260831124805 23 0 0.0 8.0 0.00 0.00 0.00 84 1024.1
20260831124305 23 0 0.0 8.0 0.00 0.00 0.00 84 1024.1
20260831123806 23 0 0.0 8.0 0.00 0.00 0.00 84 1024.0
20260831123304 23 0 0.0 8.0 0.00 0.00 0.00 84 1024.0
20260831122809 23 0 0.0 8.0 0.00 0.00 0.00 83 1024.1
20260831122306 23 295 1.6 8.0 0.00 0.00 0.00 84 1024.0
20260831121504 23 0 0.0 8.0 0.00 0.00 0.00 84 1024.0
20260831121004 23 0 0.0 8.0 0.00 0.00 0.00 84 1023.9
20260831120504 22 0 0.0 4.8 0.00 0.00 0.00 85 1023.8
20260831120006 22 0 0.0 16.1 0.00 0.00 0.00 86 1023.9
20260831115504 22 0 0.0 16.1 0.00 0.00 0.00 87 1023.9
20260831115004 22 0 0.0 4.8 0.00 0.00 0.00 88 1023.9
20260831114421 22 0 0.0 6.4 0.00 0.00 0.00 89 1023.9
20260831113922 22 0 0.0 6.4 0.00 0.00 0.00 88 1024.0
20260831113425 22 0 0.0 4.8 0.00 0.00 0.00 87 1023.9
20260831112921 22 0 0.0 1.6 0.00 0.00 0.00 87 1023.9
20260831112421 22 0 0.0 1.6 0.00 0.00 0.00 86 1023.9
20260831111924 22 0 0.0 4.8 0.00 0.00 0.00 86 1023.8
20260831111424 22 0 0.0 8.0 0.00 0.00 0.00 85 1023.8
20260831110921 22 0 0.0 8.0 0.00 0.00 0.00 85 1023.7
20260831110421 22 0 0.0 6.4 0.00 0.00 0.00 86 1023.7
20260831105931 22 0 0.0 14.5 0.00 0.00 0.00 85 1023.5
20260831105422 22 300 1.6 14.5 0.00 0.00 0.00 85 1023.6
20260831104922 22 0 0.0 6.4 0.00 0.00 0.00 85 1023.5
20260831104424 22 0 0.0 6.4 0.00 0.00 0.00 85 1023.5
20260831103921 22 0 0.0 6.4 0.00 0.00 0.00 85 1023.5
20260831103423 22 0 0.0 6.4 0.00 0.00 0.00 85 1023.5
20260831102922 22 0 0.0 8.0 0.00 0.00 0.00 85 1023.5
20260831102421 22 0 0.0 8.0 0.00 0.00 0.00 85 1023.5
20260831101921 22 0 0.0 4.8 0.00 0.00 0.00 86 1023.4
20260831101421 22 0 0.0 4.8 0.00 0.00 0.00 87 1023.3
20260831100924 21 0 0.0 3.2 0.00 0.00 0.00 87 1023.3
20260831100421 21 0 0.0 4.8 0.00 0.00 0.00 88 1023.3
20260831095922 21 0 0.0 4.8 0.00 0.00 0.00 89 1023.3
20260831095422 21 0 0.0 3.2 0.00 0.00 0.00 90 1023.2
20260831094926 21 0 0.0 3.2 0.00 0.00 0.00 90 1023.2
20260831094421 22 0 0.0 3.2 0.00 0.00 0.00 88 1023.2
20260831093921 22 0 0.0 3.2 0.00 0.00 0.00 85 1023.2
20260831093422 22 0 0.0 4.8 0.00 0.00 0.00 83 1023.2
20260831092921 22 0 0.0 4.8 0.00 0.00 0.00 83 1023.1
20260831092423 22 0 0.0 4.8 0.00 0.00 0.00 84 1023.1
20260831091921 22 0 0.0 4.8 0.00 0.00 0.00 84 1023.1
20260831091421 22 0 0.0 6.4 0.00 0.00 0.00 85 1023.1
20260831090921 22 0 0.0 6.4 0.00 0.00 0.00 85 1023.1
20260831090423 22 0 0.0 6.4 0.00 0.00 0.00 85 1023.1
20260831085922 22 0 0.0 11.3 0.00 0.00 0.00 86 1023.1
20260831085421 22 0 0.0 11.3 0.00 0.00 0.00 86 1023.2
20260831084921 22 0 0.0 3.2 0.00 0.00 0.00 86 1023.3
20260831084421 22 0 0.0 4.8 0.00 0.00 0.00 86 1023.2
20260831083921 22 0 0.0 4.8 0.00 0.00 0.00 86 1023.2
20260831083421 22 0 0.0 6.4 0.00 0.00 0.00 86 1023.2
20260831082921 22 0 0.0 6.4 0.00 0.00 0.00 86 1023.2
20260831082422 22 0 0.0 4.8 0.00 0.00 0.00 86 1023.2
20260831081924 22 0 0.0 6.4 0.00 0.00 0.00 86 1023.2
20260831081421 22 0 0.0 6.4 0.00 0.00 0.00 86 1023.2
20260831080921 22 0 0.0 3.2 0.00 0.00 0.00 86 1023.2
20260831080421 22 0 0.0 4.8 0.00 0.00 0.00 86 1023.2
20260831075922 22 0 0.0 6.4 0.00 0.00 0.00 87 1023.2
20260831075421 22 0 0.0 8.0 0.00 0.00 0.00 87 1023.1
20260831074923 22 0 0.0 17.7 0.00 0.00 0.00 87 1023.1
20260831074421 22 308 3.2 17.7 0.00 0.00 0.00 87 1023.1
20260831073921 22 306 4.8 14.5 0.00 0.00 0.00 88 1023.1
20260831073421 22 306 6.4 14.5 0.00 0.00 0.00 88 1023.1
20260831072921 22 304 6.4 12.9 0.00 0.00 0.00 88 1023.1
20260831072421 22 304 4.8 12.9 0.00 0.00 0.00 88 1023.1
20260831071921 22 303 3.2 12.9 0.00 0.00 0.00 88 1023.2
20260831071421 22 303 4.8 11.3 0.00 0.00 0.00 87 1023.2
20260831070921 22 303 4.8 11.3 0.00 0.00 0.00 87 1023.2
20260831070422 22 303 3.2 14.5 0.00 0.00 0.00 87 1023.2
20260831065922 22 303 4.8 14.5 0.00 0.00 0.00 87 1023.2
20260831065421 22 302 4.8 14.5 0.00 0.00 0.00 87 1023.2
20260831064923 22 302 4.8 14.5 0.00 0.00 0.00 87 1023.2
20260831064421 22 302 6.4 17.7 0.00 0.00 0.00 87 1023.3
20260831063922 22 302 8.0 17.7 0.00 0.00 0.00 86 1023.4
20260831063421 22 297 8.0 16.1 0.00 0.00 0.00 87 1023.4
20260831062930 22 295 8.0 16.1 0.00 0.00 0.00 86 1023.4
20260831062421 22 294 6.4 14.5 0.00 0.00 0.00 87 1023.5
20260831061921 22 288 8.0 14.5 0.00 0.00 0.00 87 1023.5
20260831061421 22 282 8.0 14.5 0.00 0.00 0.00 87 1023.6
20260831060921 22 280 4.8 14.5 0.00 0.00 0.00 88 1023.6
20260831060421 22 277 4.8 16.1 0.00 0.00 0.00 88 1023.6
20260831055922 22 277 4.8 16.1 0.00 0.00 0.00 88 1023.6
20260831055422 22 268 6.4 14.5 0.00 0.00 0.00 88 1023.7
20260831054922 22 267 6.4 14.5 0.00 0.00 0.00 89 1023.8
20260831054421 22 262 8.0 12.9 0.00 0.00 0.00 89 1023.8
20260831053921 22 254 4.8 11.3 0.00 0.00 0.00 89 1023.8
20260831053421 22 250 3.2 8.0 0.00 0.00 0.00 89 1023.8
20260831052921 22 249 1.6 8.0 0.00 0.00 0.00 89 1023.8
20260831052421 22 248 1.6 8.0 0.00 0.00 0.00 89 1023.8
20260831051921 22 0 0.0 8.0 0.00 0.00 0.00 89 1023.9
20260831051421 22 0 0.0 8.0 0.00 0.00 0.00 89 1023.9
20260831050921 22 0 0.0 6.4 0.00 0.00 0.00 89 1024.0
20260831050423 22 0 0.0 6.4 0.00 0.00 0.00 88 1023.9
20260831045921 22 0 0.0 4.8 0.00 0.00 0.00 88 1023.9
20260831045421 22 0 0.0 6.4 0.00 0.00 0.00 88 1023.9
20260831044922 22 0 0.0 6.4 0.00 0.00 0.00 88 1023.9
20260831044421 22 0 0.0 6.4 0.00 0.00 0.00 88 1024.0
20260831043921 22 0 0.0 3.2 0.00 0.00 0.00 88 1023.9
20260831043421 22 0 0.0 8.0 0.00 0.00 0.00 88 1024.0
20260831042927 22 0 0.0 8.0 0.00 0.00 0.00 88 1024.0
20260831042421 22 0 0.0 8.0 0.00 0.00 0.00 88 1024.0
20260831041923 22 0 0.0 8.0 0.00 0.00 0.00 89 1024.0
20260831041421 22 0 0.0 9.7 0.00 0.00 0.00 89 1024.1
20260831041001 22 0 0.0 9.7 0.00 0.00 0.00 88 1024.2
20260831040920 22 0 0.0 9.7 0.00 0.00 0.00 88 1024.2
20260831040423 22 0 0.0 8.0 0.00 0.00 0.00 88 1024.2
20260831035921 22 0 0.0 4.8 0.00 0.00 0.00 87 1024.3
20260831035421 22 0 0.0 4.8 0.00 0.00 0.00 87 1024.3
20260831034922 23 0 0.0 3.2 0.00 0.00 0.00 86 1024.3
20260831034421 23 0 0.0 3.2 0.00 0.00 0.00 84 1024.3
20260831033921 23 0 0.0 3.2 0.00 0.00 0.00 84 1024.3
20260831033430 23 0 0.0 3.2 0.00 0.00 0.00 84 1024.2
20260831032923 23 0 0.0 8.0 0.00 0.00 0.00 84 1024.2
20260831032421 23 0 0.0 8.0 0.00 0.00 0.00 84 1024.2
20260831031921 22 208 1.6 8.0 0.00 0.00 0.00 85 1024.2
20260831031421 22 0 0.0 9.7 0.00 0.00 0.00 85 1024.3
20260831030921 22 0 0.0 9.7 0.00 0.00 0.00 85 1024.3
20260831030421 22 0 0.0 3.2 0.00 0.00 0.00 85 1024.3
20260831025922 22 0 0.0 6.4 0.00 0.00 0.00 85 1024.4
20260831025421 22 0 0.0 6.4 0.00 0.00 0.00 85 1024.4
20260831024920 22 0 0.0 3.2 0.00 0.00 0.00 85 1024.5
20260831024421 22 0 0.0 1.6 0.00 0.00 0.00 85 1024.6
20260831023924 22 0 0.0 4.8 0.00 0.00 0.00 84 1024.6
20260831023424 22 0 0.0 4.8 0.00 0.00 0.00 85 1024.7
20260831022922 22 0 0.0 3.2 0.00 0.00 0.00 84 1024.7
20260831022421 23 0 0.0 1.6 0.00 0.00 0.00 84 1024.7
20260831021921 23 0 0.0 9.7 0.00 0.00 0.00 84 1024.6
20260831021421 23 0 0.0 9.7 0.00 0.00 0.00 84 1024.5
20260831020921 23 0 0.0 9.7 0.00 0.00 0.00 84 1024.5
20260831020422 23 0 0.0 8.0 0.00 0.00 0.00 84 1024.4
20260831015921 23 0 0.0 8.0 0.00 0.00 0.00 84 1024.5
20260831015421 23 0 0.0 8.0 0.00 0.00 0.00 84 1024.6
20260831014921 23 0 0.0 8.0 0.00 0.00 0.00 84 1024.5
20260831014421 23 0 0.0 12.9 0.00 0.00 0.00 83 1024.5
20260831013921 23 194 1.6 12.9 0.00 0.00 0.00 83 1024.4
20260831013421 23 194 1.6 9.7 0.00 0.00 0.00 83 1024.3
20260831012921 23 193 3.2 11.3 0.00 0.00 0.00 83 1024.3
20260831012421 23 193 1.6 11.3 0.00 0.00 0.00 82 1024.3
20260831011923 23 194 3.2 11.3 0.00 0.00 0.00 82 1024.2
20260831011421 23 194 1.6 11.3 0.00 0.00 0.00 82 1024.1
20260831010921 23 194 1.6 11.3 0.00 0.00 0.00 82 1024.1
20260831010420 23 0 0.0 11.3 0.00 0.00 0.00 82 1024.1
20260831005921 23 194 1.6 9.7 0.00 0.00 0.00 82 1024.0
20260831005421 23 194 1.6 9.7 0.00 0.00 0.00 82 1024.0
20260831004924 23 0 0.0 4.8 0.00 0.00 0.00 82 1024.0
20260831004421 23 0 0.0 11.3 0.00 0.00 0.00 83 1023.9
20260831003956 23 0 0.0 12.9 0.00 0.00 0.00 83 1023.7
20260831003921 23 0 0.0 12.9 0.00 0.00 0.00 83 1023.7
20260831003421 23 195 1.6 14.5 0.00 0.00 0.00 82 1023.7
20260831002922 23 195 4.8 14.5 0.00 0.00 0.00 82 1023.5
20260831002421 23 196 1.6 14.5 0.00 0.00 0.00 82 1023.6
20260831001921 23 197 4.8 14.5 0.00 0.00 0.00 83 1023.6
20260831001423 23 198 6.4 14.5 0.00 0.00 0.00 82 1023.7
20260831000921 23 195 6.4 14.5 0.00 0.00 0.00 82 1023.6
20260831000421 23 195 4.8 16.1 0.00 0.00 0.00 82 1023.6
20260830235921 23 195 4.8 16.1 0.00 0.00 0.00 82 1023.5
20260830235102 24 193 9.7 14.5 0.00 0.00 0.00 81 1023.4
20260830234541 24 0 0.0 9.7 0.00 0.00 0.00 80 1023.7
20260830234041 24 0 0.0 9.7 0.00 0.00 0.00 81 1023.7
20260830233541 24 189 1.6 8.0 0.00 0.00 0.00 81 1023.8
20260830233041 24 189 1.6 6.4 0.00 0.00 0.00 81 1023.8
20260830232542 24 0 0.0 6.4 0.00 0.00 0.00 81 1023.9
20260830232041 25 0 0.0 6.4 0.00 0.00 0.00 81 1023.9
20260830231342 25 0 0.0 4.8 0.00 0.00 0.00 80 1023.9
20260830230842 25 0 0.0 4.8 0.00 0.00 0.00 79 1023.9
20260830230344 25 0 0.0 3.2 0.00 0.00 0.00 79 1024.0
20260830225842 25 0 0.0 6.4 0.00 0.00 0.00 78 1024.0
20260830225342 25 0 0.0 6.4 0.00 0.00 0.00 78 1024.0
20260830224842 25 0 0.0 3.2 0.00 0.00 0.00 77 1023.9
20260830224342 25 0 0.0 3.2 0.00 0.00 0.00 77 1023.9
20260830223842 25 0 0.0 8.0 0.00 0.00 0.00 77 1023.9
20260830223342 25 0 0.0 8.0 0.00 0.00 0.00 77 1023.8
20260830222842 25 0 0.0 6.4 0.00 0.00 0.00 76 1023.7
20260830222342 25 0 0.0 11.3 0.00 0.00 0.00 76 1023.7
20260830221846 25 189 1.6 12.9 0.00 0.00 0.00 75 1023.7
20260830221343 26 189 1.6 12.9 0.00 0.00 0.00 75 1023.7
20260830220842 26 0 0.0 9.7 0.00 0.00 0.00 74 1023.7
20260830220343 26 0 0.0 9.7 0.00 0.00 0.00 74 1023.7
20260830215842 26 189 1.6 11.3 0.00 0.00 0.00 74 1023.7
20260830215342 26 189 1.6 11.3 0.00 0.00 0.00 74 1023.7
20260830214842 26 0 0.0 12.9 0.00 0.00 0.00 74 1023.8
20260830214342 26 189 1.6 12.9 0.00 0.00 0.00 73 1023.7
20260830213843 26 188 1.6 11.3 0.00 0.00 0.00 73 1023.7
20260830213344 26 188 3.2 11.3 0.00 0.00 0.00 73 1023.7
20260830212844 26 188 3.2 16.1 0.00 0.00 0.00 73 1023.7
20260830212342 26 187 1.6 16.1 0.00 0.00 0.00 72 1023.7
20260830211843 27 173 4.8 14.5 0.00 0.00 0.00 71 1023.7
20260830211342 27 173 6.4 14.5 0.00 0.00 0.00 72 1023.7
20260830210844 27 173 1.6 11.3 0.00 0.00 0.00 70 1023.8
20260830210331 26 173 3.2 11.3 0.00 0.00 0.00 70 1023.8
20260830205603 26 173 1.6 12.9 0.00 0.00 0.00 72 1023.7
20260830205103 26 173 4.8 12.9 0.00 0.00 0.00 69 1023.8
20260830204603 27 173 4.8 12.9 0.00 0.00 0.00 69 1023.8
20260830204105 27 173 3.2 12.9 0.00 0.00 0.00 70 1023.8
20260830203603 27 173 4.8 14.5 0.00 0.00 0.00 71 1023.8
20260830203103 27 173 6.4 14.5 0.00 0.00 0.00 68 1024.0
20260830202603 27 173 8.0 14.5 0.00 0.00 0.00 67 1024.0
20260830202103 27 175 3.2 12.9 0.00 0.00 0.00 70 1023.9
20260830201603 27 0 0.0 11.3 0.00 0.00 0.00 69 1024.0
20260830201103 27 177 4.8 11.3 0.00 0.00 0.00 69 1024.0
20260830200603 27 177 6.4 12.9 0.00 0.00 0.00 68 1024.0
20260830200103 27 177 8.0 12.9 0.00 0.00 0.00 68 1024.1
20260830195603 27 174 4.8 11.3 0.00 0.00 0.00 68 1024.2
20260830195103 27 174 3.2 11.3 0.00 0.00 0.00 68 1024.3
20260830194603 27 174 4.8 11.3 0.00 0.00 0.00 69 1024.3
20260830194104 27 174 1.6 11.3 0.00 0.00 0.00 69 1024.4
20260830193603 27 174 4.8 12.9 0.00 0.00 0.00 68 1024.4
20260830193103 27 0 0.0 14.5 0.00 0.00 0.00 69 1024.4
20260830192603 28 174 6.4 14.5 0.00 0.00 0.00 68 1024.4
20260830192103 28 182 3.2 9.7 0.00 0.00 0.00 69 1024.5
20260830191604 28 0 0.0 8.0 0.00 0.00 0.00 68 1024.5
20260830191103 28 182 3.2 8.0 0.00 0.00 0.00 68 1024.7
20260830190603 27 182 1.6 9.7 0.00 0.00 0.00 71 1024.7
20260830185603 27 182 4.8 8.0 0.00 0.00 0.00 70 1024.8
20260830185103 27 183 1.6 8.0 0.00 0.00 0.00 70 1024.9
20260830184542 27 185 6.4 11.3 0.00 0.00 0.00 68 1025.0
20260830182802 27 0 0.0 4.8 0.00 0.00 0.00 71 1025.4
20260830182306 27 0 0.0 3.2 0.00 0.00 0.00 69 1025.5
20260830181802 28 0 0.0 6.4 0.00 0.00 0.00 70 1025.6
20260830181302 27 0 0.0 6.4 0.00 0.00 0.00 71 1025.6
20260830180802 27 0 0.0 1.6 0.00 0.00 0.00 72 1025.7
20260830180039 27 185 1.6 9.7 0.00 0.00 0.00 71 1025.8
20260830175539 26 185 1.6 9.7 0.00 0.00 0.00 76 1025.9
20260830175039 26 187 3.2 9.7 0.00 0.00 0.00 76 1026.0
20260830174539 26 187 1.6 6.4 0.00 0.00 0.00 75 1026.0
20260830174040 26 0 0.0 4.8 0.00 0.00 0.00 75 1026.1
20260830173539 26 0 0.0 6.4 0.00 0.00 0.00 76 1026.1
20260830173041 26 187 1.6 6.4 0.00 0.00 0.00 74 1026.2
20260830172539 26 0 0.0 4.8 0.00 0.00 0.00 75 1026.3
20260830172040 25 0 0.0 6.4 0.00 0.00 0.00 75 1026.4
20260830171541 25 0 0.0 8.0 0.00 0.00 0.00 75 1026.4
20260830171039 26 188 3.2 9.7 0.00 0.00 0.00 75 1026.5
20260830170539 26 188 3.2 11.3 0.00 0.00 0.00 76 1026.6
20260830170039 26 190 3.2 11.3 0.00 0.00 0.00 76 1026.6
20260830165539 26 191 3.2 8.0 0.00 0.00 0.00 73 1026.7
20260830165040 26 0 0.0 6.4 0.00 0.00 0.00 76 1026.7
20260830164539 26 0 0.0 8.0 0.00 0.00 0.00 77 1026.8
20260830164041 26 191 1.6 8.0 0.00 0.00 0.00 75 1026.8
20260830163539 25 0 0.0 8.0 0.00 0.00 0.00 79 1026.9
20260830163040 25 191 3.2 8.0 0.00 0.00 0.00 80 1026.9
20260830162539 24 191 1.6 8.0 0.00 0.00 0.00 82 1026.9
20260830162040 23 0 0.0 8.0 0.00 0.00 0.00 86 1026.9
20260830161539 23 0 0.0 4.8 0.00 0.00 0.00 85 1026.9
20260830161016 23 191 1.6 8.0 0.00 0.00 0.00 84 1026.9
20260830155817 23 191 3.2 6.4 0.00 0.00 0.00 87 1027.0
20260830155306 23 0 0.0 0.0 0.00 0.00 0.00 85 1027.0
20260830154805 23 0 0.0 0.0 0.00 0.00 0.00 85 1027.0
20260830154304 23 0 0.0 0.0 0.00 0.00 0.00 87 1027.0
20260830153804 22 0 0.0 0.0 0.00 0.00 0.00 88 1027.0
20260830153304 22 0 0.0 0.0 0.00 0.00 0.00 88 1027.0
20260830152804 22 0 0.0 0.0 0.00 0.00 0.00 89 1027.0
20260830152306 22 0 0.0 0.0 0.00 0.00 0.00 88 1027.1
20260830151804 22 0 0.0 0.0 0.00 0.00 0.00 89 1027.1
20260830151304 22 0 0.0 0.0 0.00 0.00 0.00 91 1027.1
20260830150804 21 0 0.0 0.0 0.00 0.00 0.00 91 1027.0
20260830150304 21 0 0.0 0.0 0.00 0.00 0.00 91 1027.1
20260830145806 21 0 0.0 4.8 0.00 0.00 0.00 91 1027.1
20260830145307 22 0 0.0 4.8 0.00 0.00 0.00 91 1027.1
20260830144806 22 0 0.0 0.0 0.00 0.00 0.00 91 1027.1
20260830144304 22 0 0.0 0.0 0.00 0.00 0.00 90 1027.1
20260830143804 21 0 0.0 0.0 0.00 0.00 0.00 90 1027.1
20260830143304 21 0 0.0 4.8 0.00 0.00 0.00 91 1027.1
20260830142804 22 0 0.0 8.0 0.00 0.00 0.00 89 1027.1
20260830142306 22 191 1.6 9.7 0.00 0.00 0.00 88 1027.1
20260830141804 23 191 3.2 9.7 0.00 0.00 0.00 89 1027.0
20260830141304 22 191 3.2 9.7 0.00 0.00 0.00 88 1027.0
20260830140804 22 191 4.8 9.7 0.00 0.00 0.00 89 1027.0
20260830140304 22 191 4.8 9.7 0.00 0.00 0.00 89 1027.0
20260830135804 22 191 4.8 11.3 0.00 0.00 0.00 91 1026.9
20260830135306 22 191 6.4 11.3 0.00 0.00 0.00 92 1027.0
20260830134804 22 0 0.0 9.7 0.00 0.00 0.00 94 1027.1
20260830134304 22 191 3.2 9.7 0.00 0.00 0.00 94 1027.2
20260830133806 21 191 3.2 8.0 0.00 0.00 0.00 98 1027.1
20260830133304 21 191 1.6 8.0 0.00 0.00 0.00 98 1027.2
20260830132805 20 0 0.0 0.0 0.00 0.00 0.00 98 1027.1
20260830132306 20 0 0.0 0.0 0.00 0.00 0.00 99 1027.2
20260830131804 20 0 0.0 0.0 0.00 0.00 0.00 99 1027.2
20260830131304 20 0 0.0 0.0 0.00 0.00 0.00 99 1027.3
20260830130804 20 0 0.0 0.0 0.00 0.00 0.00 99 1027.3
20260830130305 20 0 0.0 0.0 0.00 0.00 0.00 99 1027.3
20260830125804 20 0 0.0 0.0 0.00 0.00 0.00 99 1027.3
20260830125306 20 0 0.0 0.0 0.00 0.00 0.00 99 1027.3